Tracking 19226 objects as of 23-Jul-2018
HD Live streaming from Space Station
objects crossing your sky now

ABS 3

Track ABS 3 now!
ABS 3 is classified as:


NORAD ID: 24901
Int'l Code: 1997-042A
Perigee: 36,067.0 km
Apogee: 36,093.4 km
Inclination: 5.6 °
Period: 1,450.8 minutes
Semi major axis: 42451 km
RCS: 10 m2 (large)
Launch date: August 19, 1997
Source: People's Republic of China (PRC)
Launch site: Xichang Space Center, China (XSC)

Most powerful telecommunications satellite in service in the Asia-Pacific region; 30 C-band, 24 Ku-band transponders; 190 high fidelity channels and 50,000 simultaneous telephone links.
aabbcc
Your satellite tracking list
Your tracking list is empty




NASA's NSSDC Master Catalog

Two Line Element Set (TLE):
1 24901U 97042A   18203.54100164 +.00000068 +00000-0 +00000-0 0  9997
2 24901 005.6149 061.1639 0003119 172.3942 130.4154 00.99258585076575
Source of the keplerian elements: AFSPC